Tracking 22441 objects as of 28-Feb-2021
HD Live streaming from Space Station
objects crossing your sky now

FREGAT DEB

Track FREGAT DEB now!
10-day predictions


NORAD ID: 45964
Int'l Code: 2011-037FV
Perigee: 444.3 km
Apogee: 3,585.5 km
Inclination: 51.4 °
Period: 127.4 minutes
Semi major axis: 8385 km
RCS: Unknown
Launch date: July 18, 2011
Source: Commonwealth of Independent States (former USSR) (CIS)
Launch site: TYURATAM MISSILE AND SPACE COMPLEX (TTMTR)

Note: This is SATELLITE DEBRIS
aabbcc
Your satellite tracking list
Your tracking list is empty




NASA's NSSDC Master Catalog

Two Line Element Set (TLE):
1 45964U 11037FV  21059.33328569  .00004114  00000-0  98430-3 0  9993
2 45964  51.4447  60.1542 1872890 200.1611 151.4467 11.30523609 24744
Source of the keplerian elements: AFSPC